| time (UTC) | temp F | wind direction | speed MPH | gust MPH | rain 1hr in | rain 24hr in | rain mn in | humidity % | barometer mb |
| 20260901234601 | 85 | 175 | 6.0 | 9.0 | 0.00 | 0.00 | 0.00 | 32 | 1002.6 |
| 20260901233024 | 85 | 143 | 5.0 | 10.0 | 0.00 | 0.00 | 0.00 | 30 | 1002.7 |
| 20260901231521 | 84 | 132 | 2.0 | 11.0 | 0.00 | 0.00 | 0.00 | 31 | 1002.6 |
| 20260901230008 | 84 | 191 | 6.0 | 14.0 | 0.00 | 0.00 | 0.00 | 31 | 1002.9 |
| 20260901224600 | 84 | 195 | 13.0 | 18.0 | 0.00 | 0.00 | 0.00 | 32 | 1002.9 |
| 20260901223041 | 83 | 221 | 16.0 | 19.0 | 0.00 | 0.00 | 0.00 | 33 | 1003.0 |
| 20260901221602 | 82 | 215 | 13.0 | 18.0 | 0.00 | 0.00 | 0.00 | 35 | 1003.3 |
| 20260901220017 | 82 | 194 | 9.0 | 14.0 | 0.00 | 0.00 | 0.00 | 34 | 1003.4 |
| 20260901214518 | 81 | 181 | 7.0 | 13.0 | 0.00 | 0.00 | 0.00 | 35 | 1003.5 |
| 20260901213003 | 82 | 221 | 9.0 | 16.0 | 0.00 | 0.00 | 0.00 | 33 | 1003.8 |
| 20260901211601 | 81 | 197 | 8.0 | 14.0 | 0.00 | 0.00 | 0.00 | 35 | 1003.9 |
| 20260901210056 | 80 | 198 | 7.0 | 14.0 | 0.00 | 0.00 | 0.00 | 35 | 1004.3 |
| 20260901204557 | 80 | 202 | 7.0 | 13.0 | 0.00 | 0.00 | 0.00 | 34 | 1004.5 |
| 20260901203101 | 79 | 204 | 3.0 | 10.0 | 0.00 | 0.00 | 0.00 | 37 | 1004.7 |
| 20260901201550 | 79 | 201 | 9.0 | 14.0 | 0.00 | 0.00 | 0.00 | 37 | 1005.0 |
| 20260901200044 | 77 | 204 | 7.0 | 12.0 | 0.00 | 0.00 | 0.00 | 40 | 1005.0 |
| 20260901194543 | 76 | 207 | 8.0 | 12.0 | 0.00 | 0.00 | 0.00 | 39 | 1005.2 |
| 20260901193024 | 76 | 155 | 3.0 | 7.0 | 0.00 | 0.00 | 0.00 | 41 | 1005.2 |
| 20260901191524 | 76 | 141 | 4.0 | 11.0 | 0.00 | 0.00 | 0.00 | 41 | 1005.2 |
| 20260901190057 | 75 | 207 | 8.0 | 11.0 | 0.00 | 0.00 | 0.00 | 41 | 1005.6 |
| 20260901184602 | 74 | 179 | 4.0 | 9.0 | 0.00 | 0.00 | 0.00 | 44 | 1005.7 |
| 20260901183040 | 74 | 195 | 6.0 | 10.0 | 0.00 | 0.00 | 0.00 | 44 | 1005.7 |
| 20260901181541 | 74 | 139 | 5.0 | 8.0 | 0.00 | 0.00 | 0.00 | 43 | 1005.7 |
| 20260901180035 | 72 | 193 | 2.0 | 5.0 | 0.00 | 0.00 | 0.00 | 47 | 1005.9 |
| 20260901174533 | 72 | 156 | 3.0 | 5.0 | 0.00 | 0.00 | 0.00 | 48 | 1006.0 |
| 20260901173030 | 71 | 134 | 2.0 | 6.0 | 0.00 | 0.00 | 0.00 | 48 | 1006.1 |
| 20260901171529 | 71 | 152 | 2.0 | 3.0 | 0.00 | 0.00 | 0.00 | 47 | 1005.9 |
| 20260901170028 | 70 | 128 | 1.0 | 5.0 | 0.00 | 0.00 | 0.00 | 48 | 1005.8 |
| 20260901164526 | 69 | 124 | 2.0 | 5.0 | 0.00 | 0.00 | 0.00 | 49 | 1005.9 |
| 20260901163005 | 69 | 141 | 2.0 | 5.0 | 0.00 | 0.00 | 0.00 | 52 | 1006.1 |
| 20260901161511 | 68 | 172 | 2.0 | 6.0 | 0.00 | 0.00 | 0.00 | 52 | 1006.0 |
| 20260901160052 | 67 | 105 | 2.0 | 4.0 | 0.00 | 0.00 | 0.00 | 51 | 1005.7 |
| 20260901154538 | 66 | 96 | 2.0 | 3.0 | 0.00 | 0.00 | 0.00 | 55 | 1005.6 |
| 20260901153021 | 66 | 120 | 0.0 | 2.0 | 0.00 | 0.00 | 0.00 | 56 | 1005.7 |
| 20260901151519 | 65 | 127 | 0.0 | 1.0 | 0.00 | 0.00 | 0.00 | 57 | 1005.8 |
| 20260901150104 | 64 | 79 | 0.0 | 0.0 | 0.00 | 0.00 | 0.00 | 60 | 1005.8 |
| 20260901144557 | 63 | 79 | 0.0 | 2.0 | 0.00 | 0.00 | 0.00 | 61 | 1005.7 |
| 20260901143037 | 62 | 89 | 3.0 | 4.0 | 0.00 | 0.00 | 0.00 | 62 | 1005.3 |
| 20260901141538 | 64 | 148 | 1.0 | 2.0 | 0.00 | 0.00 | 0.00 | 57 | 1005.1 |
| 20260901140017 | 63 | 61 | 0.0 | 2.0 | 0.00 | 0.00 | 0.00 | 55 | 1005.2 |
| 20260901134528 | 63 | 284 | 3.0 | 6.0 | 0.00 | 0.00 | 0.00 | 54 | 1005.1 |
| 20260901133056 | 63 | 188 | 1.0 | 5.0 | 0.00 | 0.00 | 0.00 | 53 | 1005.1 |
| 20260901131553 | 62 | 177 | 3.0 | 8.0 | 0.00 | 0.00 | 0.00 | 56 | 1004.9 |
| 20260901130035 | 63 | 6 | 1.0 | 4.0 | 0.00 | 0.00 | 0.00 | 60 | 1005.1 |
| 20260901124540 | 63 | 44 | 0.0 | 4.0 | 0.00 | 0.00 | 0.00 | 57 | 1004.9 |
| 20260901123017 | 63 | 69 | 0.0 | 2.0 | 0.00 | 0.00 | 0.00 | 56 | 1005.0 |
| 20260901121516 | 63 | 16 | 0.0 | 5.0 | 0.00 | 0.00 | 0.00 | 56 | 1004.8 |
| 20260901120104 | 62 | 67 | 2.0 | 3.0 | 0.00 | 0.00 | 0.00 | 59 | 1005.0 |
| 20260901114600 | 65 | 151 | 3.0 | 7.0 | 0.00 | 0.00 | 0.00 | 52 | 1005.1 |
| 20260901113105 | 65 | 270 | 2.0 | 3.0 | 0.00 | 0.00 | 0.00 | 51 | 1004.8 |
| 20260901111541 | 65 | 264 | 0.0 | 5.0 | 0.00 | 0.00 | 0.00 | 50 | 1004.7 |
| 20260901110022 | 66 | 279 | 2.0 | 7.0 | 0.00 | 0.00 | 0.00 | 49 | 1004.7 |
| 20260901104522 | 66 | 305 | 4.0 | 7.0 | 0.00 | 0.00 | 0.00 | 50 | 1004.7 |
| 20260901103009 | 66 | 302 | 3.0 | 7.0 | 0.00 | 0.00 | 0.00 | 49 | 1004.9 |
| 20260901101508 | 66 | 294 | 1.0 | 3.0 | 0.00 | 0.00 | 0.00 | 48 | 1005.0 |
| 20260901100008 | 65 | 270 | 0.0 | 3.0 | 0.00 | 0.00 | 0.00 | 50 | 1004.9 |
| 20260901094507 | 64 | 336 | 0.0 | 2.0 | 0.00 | 0.00 | 0.00 | 51 | 1004.9 |
| 20260901093016 | 66 | 159 | 0.0 | 3.0 | 0.00 | 0.00 | 0.00 | 48 | 1005.0 |
| 20260901091506 | 67 | 286 | 3.0 | 5.0 | 0.00 | 0.00 | 0.00 | 46 | 1004.9 |
| 20260901090008 | 67 | 309 | 1.0 | 4.0 | 0.00 | 0.00 | 0.00 | 45 | 1005.0 |
| 20260901084517 | 69 | 278 | 5.0 | 8.0 | 0.00 | 0.00 | 0.00 | 43 | 1004.8 |
| 20260901083047 | 69 | 276 | 4.0 | 6.0 | 0.00 | 0.00 | 0.00 | 42 | 1004.9 |
| 20260901081551 | 70 | 273 | 4.0 | 10.0 | 0.00 | 0.00 | 0.00 | 42 | 1005.0 |
| 20260901080037 | 71 | 283 | 7.0 | 12.0 | 0.00 | 0.00 | 0.00 | 38 | 1005.2 |
| 20260901074528 | 72 | 264 | 7.0 | 11.0 | 0.00 | 0.00 | 0.00 | 35 | 1005.2 |
| 20260901073010 | 73 | 278 | 3.0 | 8.0 | 0.00 | 0.00 | 0.00 | 35 | 1005.1 |
| 20260901071510 | 72 | 281 | 5.0 | 10.0 | 0.00 | 0.00 | 0.00 | 35 | 1005.2 |
| 20260901070100 | 72 | 276 | 8.0 | 12.0 | 0.00 | 0.00 | 0.00 | 36 | 1005.2 |
| 20260901064550 | 72 | 294 | 6.0 | 9.0 | 0.00 | 0.00 | 0.00 | 36 | 1005.4 |
| 20260901063032 | 72 | 266 | 7.0 | 10.0 | 0.00 | 0.00 | 0.00 | 35 | 1005.4 |
| 20260901061531 | 74 | 186 | 2.0 | 6.0 | 0.00 | 0.00 | 0.00 | 33 | 1005.4 |
| 20260901060013 | 74 | 302 | 5.0 | 9.0 | 0.00 | 0.00 | 0.00 | 33 | 1005.5 |
| 20260901054515 | 74 | 291 | 5.0 | 9.0 | 0.00 | 0.00 | 0.00 | 33 | 1005.6 |
| 20260901053128 | 75 | 296 | 6.0 | 11.0 | 0.00 | 0.00 | 0.00 | 32 | 1005.6 |
| 20260901051556 | 77 | 338 | 7.0 | 15.0 | 0.00 | 0.00 | 0.00 | 29 | 1005.7 |
| 20260901050054 | 79 | 345 | 11.0 | 17.0 | 0.00 | 0.00 | 0.00 | 28 | 1005.6 |
| 20260901044554 | 79 | 335 | 15.0 | 19.0 | 0.00 | 0.00 | 0.00 | 28 | 1005.4 |
| 20260901043040 | 79 | 339 | 16.0 | 21.0 | 0.00 | 0.00 | 0.00 | 28 | 1005.6 |
| 20260901041519 | 78 | 347 | 16.0 | 24.0 | 0.00 | 0.00 | 0.00 | 29 | 1005.8 |
| 20260901040017 | 78 | 356 | 13.0 | 16.0 | 0.00 | 0.00 | 0.00 | 29 | 1005.6 |
| 20260901034606 | 78 | 340 | 14.0 | 19.0 | 0.00 | 0.00 | 0.00 | 29 | 1005.6 |
| 20260901033058 | 78 | 346 | 9.0 | 16.0 | 0.00 | 0.00 | 0.00 | 29 | 1005.8 |
| 20260901031547 | 77 | 336 | 11.0 | 14.0 | 0.00 | 0.00 | 0.00 | 29 | 1005.6 |
| 20260901030041 | 79 | 343 | 13.0 | 17.0 | 0.00 | 0.00 | 0.00 | 28 | 1005.7 |
| 20260901024525 | 79 | 345 | 12.0 | 15.0 | 0.00 | 0.00 | 0.00 | 28 | 1005.7 |
| 20260901023021 | 78 | 340 | 11.0 | 15.0 | 0.00 | 0.00 | 0.00 | 29 | 1005.6 |
| 20260901021502 | 80 | 350 | 10.0 | 13.0 | 0.00 | 0.00 | 0.00 | 27 | 1005.8 |
| 20260901020114 | 82 | 354 | 10.0 | 14.0 | 0.00 | 0.00 | 0.00 | 25 | 1005.9 |
| 20260901014544 | 84 | 356 | 10.0 | 14.0 | 0.00 | 0.00 | 0.00 | 24 | 1006.0 |
| 20260901013044 | 85 | 27 | 9.0 | 14.0 | 0.00 | 0.00 | 0.00 | 23 | 1006.1 |
| 20260901011533 | 85 | 18 | 6.0 | 13.0 | 0.00 | 0.00 | 0.00 | 23 | 1006.2 |
| 20260901010021 | 85 | 30 | 10.0 | 15.0 | 0.00 | 0.00 | 0.00 | 23 | 1006.4 |
| 20260901004501 | 86 | 43 | 11.0 | 15.0 | 0.00 | 0.00 | 0.00 | 23 | 1006.6 |
| 20260901003123 | 86 | 8 | 9.0 | 13.0 | 0.00 | 0.00 | 0.00 | 22 | 1006.7 |
| 20260901001555 | 86 | 21 | 9.0 | 14.0 | 0.00 | 0.00 | 0.00 | 23 | 1007.0 |
| 20260901000044 | 86 | 82 | 6.0 | 14.0 | 0.00 | 0.00 | 0.00 | 22 | 1007.3 |